Regional Weather Roundup
Issued by NWS

Home | Current Version | Previous Version | Graphics & Text | Print | Product List | Glossary On
Versions: 1 2 3 4 5 6 7 8 9 10 11 12 13 14 15 16 17 18 19 20 21 22 23 24 25 26 27 28 29 30 31 32 33 34 35 36 37 38 39 40 41 42 43 44 45 46 47 48 49 50
000
ASUS43 KLOT 260409
RWRIL

ILLINOIS REGIONAL WEATHER ROUNDUP
NATIONAL WEATHER SERVICE CHICAGO/ROMEOVILLE IL
1100 PM CDT MON JUL 25 2016

NOTE: "FAIR" INDICATES FEW OR NO CLOUDS BELOW 12,000 FEET WITH NO
SIGNIFICANT WEATHER AND/OR OBSTRUCTIONS TO VISIBILITY.

* THESE STATIONS ARE NOT UNDER NWS QUALITY CONTROL. THEY ALSO MAY NOT
  REPORT WEATHER SUCH AS PRECIPITATION OR FOG.

ILZ001-002-007-009-015-016-024-260500-
NORTHWEST ILLINOIS

CITY           SKY/WX    TMP DP  RH WIND       PRES   REMARKS
MOLINE         CLOUDY    71  66  84 CALM      30.03S
STERLING*      CLOUDY    71  67  87 CALM      30.03S
SAVANNA*       CLEAR     70  68  92 CALM      30.03S
$$

ILZ003-004-008-010-011-017-018-260500-
NORTH CENTRAL ILLINOIS

CITY           SKY/WX    TMP DP  RH WIND       PRES   REMARKS
ROCKFORD       CLEAR     77  64  64 CALM      30.04S
FREEPORT*      CLEAR     67  65  91 CALM      30.06S
ROCHELLE*      CLEAR     70  67  89 CALM      30.04S
DE KALB*       CLEAR     71  67  87 CALM      30.04S
$$

ILZ005-006-012>014-019>023-260500-
NORTHEAST ILLINOIS

CITY           SKY/WX    TMP DP  RH WIND       PRES   REMARKS
CHICAGO-OHARE  PTCLDY    79  63  57 NE3       30.02R HX  80
CHICAGO-MIDWAY CLOUDY    79  61  53 E6        30.01S HX  80
AURORA         CLEAR     71  68  90 CALM      30.03R
LANSING*       MOCLDY    72  64  78 CALM      30.02S
JOLIET*        CLOUDY    76  71  84 CALM      30.02S
WAUKEGAN       CLEAR     68  64  87 CALM      30.02R
DUPAGE AIRPORT MOCLDY    74  64  71 CALM      30.02S
KANKAKEE*      CLOUDY    72  70  94 CALM      30.03S
WHEELING       MOCLDY    75  64  68 CALM      30.03S
MORRIS*        CLOUDY    72  69  92 CALM      30.01S
ROMEOVILLE*    CLEAR     72  65  78 CALM      30.02S
NORTHERLY ISL    N/A     73  66  78 CALM        N/A
$$

LMZ740>746-260500-
SOUTHERN LAKE MICHIGAN

STATION/POSITION SKY/WX   TEMP    WIND        PRES    VSBY  WAVE
                          AIR SEA DIR/SP/G                  HT/PER
                          (F)     (DEG/KT/KT) (MB)    (MI)  (FT/S)
SOUTHERN BUOY              74 74  250/  4/  4 1015.6F         0
WILMETTE HARBOR            70 70  270/  2/  2   N/A           0
HARRISON CRIB              75     150/  2/  3   N/A
BURNHAM HARBOR             72        CALM       N/A
CALUMET HARBOR             76     100/  4/  6   N/A
BURNS HARBOR               76     100/  5/  7 1016.9R
MICHIGAN CITY              76     100/  2/  2   N/A
MICHIGAN CITY 6N           76 75  110/  2/  4   N/A           1
ST. JOSEPH                 76 76  130/  2/  2 1016.2R         1/ 3
$$

ILZ025>027-034>036-040-047-049-050-058-095>099-260500-
WEST-CENTRAL ILLINOIS

CITY           SKY/WX    TMP DP  RH WIND       PRES   REMARKS
QUINCY         PTCLDY    73  69  87 CALM      30.05R
GALESBURG*     CLOUDY    69  68  96 CALM      30.05R
MACOMB*        MOCLDY    68  67  96 CALM      30.06R
JACKSONVILLE*  PTCLDY    71  69  95 CALM      30.03S
PITTSFIELD*    PTCLDY    73  71  96 CALM      30.05S
$$

ILZ028>032-037-038-041>044-048-051>054-059>061-260500-
CENTRAL ILLINOIS

CITY           SKY/WX    TMP DP  RH WIND       PRES   REMARKS
BLOOMINGTON    CLOUDY    75  68  78 CALM      30.05
DECATUR        MOCLDY    75  71  87 NE5       30.02S
PEORIA         PTCLDY    73  70  90 CALM      30.03R
LACON*         CLOUDY    70  68  93 CALM      30.02S
LINCOLN*       PTCLDY    73  72  98 CALM      30.02S
SPRINGFIELD    MOCLDY    74  71  91 CALM      30.03R
TAYLORVILLE    MOCLDY    73  73 100 MISG      30.02S
$$

ILZ033-039-045-046-055>057-062-063-260500-
EAST-CENTRAL ILLINOIS

CITY           SKY/WX    TMP DP  RH WIND       PRES   REMARKS
CHAMPAIGN      CLOUDY    74  70  87 N6        30.03S
MATTOON        PTCLDY    76  72  87 NW3       30.02R
PARIS*         PTCLDY    74  74 100 CALM      30.03R
$$

ILZ079-100>102-260500-
SOUTHWEST ILLINOIS

CITY           SKY/WX    TMP DP  RH WIND       PRES   REMARKS
ALTON          CLOUDY    77  74  92 CALM      30.02R
BELLEVILLE     DRIZZLE   77  77 100 CALM      30.00R
CAHOKIA*       CLOUDY    80  76  87 CALM      30.01R HX  86
SPARTA*        CLOUDY    79  77  95 CALM      30.01S HX  83
$$

ILZ064>066-069>071-074>076-080>082-084>086-088>090-092>094-260500-
SOUTH-CENTRAL ILLINOIS

CITY           SKY/WX    TMP DP  RH WIND       PRES   REMARKS
CARBONDALE     PTCLDY    77  75  93 CALM      30.00R
CAIRO*         CLEAR     75  75 100 CALM      30.00S
EFFINGHAM*     CLOUDY    77  76  96 CALM      30.03R
MARION         PTCLDY    77  75  94 CALM      30.01S FOG
MT. VERNON     MOCLDY    75  72  88 CALM      30.00S
CENTRALIA*     CLOUDY    78  78 100 CALM      30.00S FOG     HX  80
SALEM*         MOCLDY    77  74  91 CALM      30.01S
METROPOLIS*    CLOUDY    76  75  97 CALM      30.00S
$$

ILZ067-068-072-073-078-083-087-091-260500-
SOUTHEAST ILLINOIS

CITY           SKY/WX    TMP DP  RH WIND       PRES   REMARKS
LAWRENCEVILLE  CLOUDY    77  76  96 CALM      30.01R
FLORA*         CLOUDY    78  77  96 CALM      30.01S HX  80
FAIRFIELD*     CLOUDY    74  74  99 CALM      30.00R
HARRISBURG*    CLEAR     74  74 100 CALM      30.01R
ROBINSON*      PTCLDY    75  74  99 CALM      30.02R FOG
CARMI*         PTCLDY    74  74 100 CALM      30.00S FOG
$$

ABBREVIATIONS USED IN REMARKS
   TC - TEMPERATURE IN CELSIUS
  WCI - WIND CHILL INDEX
   HX - HEAT INDEX
  VSB - VISIBILITY
$$




USA.gov is the U.S. government's official web portal to all federal, state and local government web resources and services.